Jogging de Julémont (Herve) 23/03/2014 - 9,35 km
Mise à jour le : 02/05/2014 à 15:51
Classement définitif, aucune correction possible
Place Nom Prénom Dossard Temps Vitesse Allure Place. Cat. Catégorie
1 VANDEPUTTE EDDY 76 32:49 17,09 3:30 1 Vétérans 1
2 BRENNENRAEDTS CEDRIC 812 32:54 17,05 3:31 1 Séniors
3 DEFLANDRE CLÉMENT 810 33:44 16,63 3:36 1 Espoirs Garçons
4 MICHEL LUC 498 34:23 16,31 3:40 2 Séniors
5 BADER REGIS 905 34:39 16,19 3:42 3 Séniors
6 LOOP ROMAIN 758 34:42 16,16 3:42 2 Espoirs Garçons
7 CABO FRANÇOIS 859 34:44 16,15 3:42 4 Séniors
8 RECKER MARCEL 709 34:53 16,07 3:43 1 Vétérans 2
9 WITHOFS PETER 811 35:15 15,91 3:46 5 Séniors
10 BOSCO TOM 706 35:27 15,82 3:47 6 Séniors
11 POUMAY PIERRE 553 35:44 15,70 3:49 7 Séniors
12 VAESEN BENOIT 781 35:52 15,64 3:50 8 Séniors
13 BLANCHY GILLES 85 36:02 15,56 3:51 2 Vétérans 2
14 NIZET KEVIN 522 36:07 15,53 3:51 9 Séniors
15 KEUTGENS MARIO 402 36:28 15,38 3:54 10 Séniors
16 BEUKEN SERGE 80 36:44 15,27 3:55 2 Vétérans 1
17 MUYLKENS LOIC 513 37:26 14,98 4:00 3 Espoirs Garçons
18 DUMOULIN MAXIME 250 37:36 14,92 4:01 4 Espoirs Garçons
19 DEFLANDRE DORIAN 856 37:59 14,76 4:03 11 Séniors
20 KLEYNEN ARNAUD 911 38:17 14,65 4:05 12 Séniors
21 HERZET FREDERICK 4 38:26 14,59 4:06 13 Séniors
22 LOURTIE THIBAUT 463 38:35 14,54 4:07 14 Séniors
23 LICATA GIOVANNI 708 38:36 14,53 4:07 3 Vétérans 1
24 ROZEIN JURGEN 589 38:40 14,51 4:08 3 Vétérans 2
25 LORQUET JEAN-MARC 461 38:43 14,49 4:08 4 Vétérans 2
26 D'AFFNAY JEAN-FRANCOIS 162 38:54 14,42 4:09 15 Séniors
27 SAMYN STEPHAN 591 39:02 14,37 4:10 16 Séniors
28 BREUER GUILLAUME 114 39:05 14,35 4:10 17 Séniors
29 DEMIRKAZAN MIKAIL 210 39:08 14,33 4:11 18 Séniors
30 BRAGARD JEAN-FRANCOIS 110 39:16 14,28 4:12 19 Séniors
31 DUPUIS GAETAN 698 39:29 14,21 4:13 20 Séniors
32 DETHIER JEROME 231 39:30 14,20 4:13 21 Séniors
33 VROMEN PIERRE-YVES 675 39:34 14,18 4:13 22 Séniors
34 FOGUENNE TIZIANO 290 39:42 14,13 4:14 5 Espoirs Garçons
35 JOSKIN DAMIEN 390 39:50 14,08 4:15 23 Séniors
36 DESMECHT JAMES 224 39:56 14,05 4:16 4 Vétérans 1
37 LEMAIRE CEDRIC 440 40:06 13,99 4:17 24 Séniors
38 DETHIER JULIEN 229 40:08 13,97 4:17 25 Séniors
39 DHEUR MAXIME 761 40:10 13,96 4:17 26 Séniors
40 SLAVICA YVAM 891 40:11 13,96 4:17 5 Vétérans 1
41 DETAILLE JULIEN 228 40:13 13,95 4:18 27 Séniors
42 GODELAINE STEPHANE 323 40:15 13,94 4:18 28 Séniors
43 FISSETTE YANNICK 728 40:20 13,91 4:18 29 Séniors
44 DENOZ MAXIME 929 40:21 13,90 4:18 30 Séniors
45 DUBOIS SAMUEL 246 40:27 13,86 4:19 31 Séniors
46 ORTMANS STEPHANIE 878 40:34 13,83 4:20 1 Ainées 1
47 WYSOCKI NICOLAS 877 40:35 13,82 4:20 32 Séniors
48 VANHULST BENOIT 662 40:48 13,75 4:21 33 Séniors
49 BECKERS BENOIT 12 40:56 13,70 4:22 6 Vétérans 1
50 LEHAEN PIERRE-OLIVIER 436 41:00 13,68 4:23 34 Séniors
51 FOGUENNE ALAIN 288 41:02 13,67 4:23 35 Séniors
52 LODOMEZ OLIVIER 454 41:08 13,64 4:23 36 Séniors
53 NICOLAS FRANCIS 518 41:11 13,62 4:24 7 Vétérans 1
54 EVRARD AMAURY 269 41:13 13,61 4:24 37 Séniors
55 VANDENBORRE JULIEN 657 41:14 13,60 4:24 38 Séniors
56 ZIANT SEBASTIEN 696 41:16 13,59 4:24 39 Séniors
57 VAN HAUTEN KEVIN 650 41:17 13,59 4:24 40 Séniors
58 VERVIER ARNAUD 862 41:18 13,58 4:25 41 Séniors
59 HENDRICK JULIEN 347 41:24 13,55 4:25 42 Séniors
60 CHARLES ANTOINE 927 41:26 13,54 4:25 43 Séniors
61 BOGAERT CHARLY 94 41:27 13,53 4:26 8 Vétérans 1
62 DESSOUROUX JEAN 227 41:29 13,52 4:26 1 Vétérans 3
63 DELSUPEXHE SEBASTIEN 204 41:30 13,51 4:26 44 Séniors
64 FETTWEIS VERONIQUE 282 41:35 13,49 4:26 1 Dames
65 FASSIN JEAN-PHILIPPE 286 41:38 13,47 4:27 45 Séniors
66 FLECHET THIERRY 776 41:40 13,46 4:27 9 Vétérans 1
67 VERVIER CHRISTOPHE 778 41:42 13,45 4:27 46 Séniors
68 BAAR GREGORY 49 41:44 13,44 4:27 47 Séniors
69 GARROI CYRILLE 304 41:45 13,43 4:27 48 Séniors
70 JOASSART MARTIN 386 41:46 13,43 4:28 49 Séniors
71 SONTAG THIERRY 615 41:47 13,42 4:28 50 Séniors
72 PIERRE FABIAN 538 42:00 13,35 4:29 51 Séniors
73 PIRLET MARTIN 540 42:07 13,32 4:30 52 Séniors
74 VREULS CHRISTELLE 1024 42:13 13,29 4:30 2 Ainées 1
75 AGNOLI PIERRE 40 42:16 13,27 4:31 53 Séniors
76 SAUSSEZ MICHEL 824 42:17 13,26 4:31 10 Vétérans 1
77 VAN HOYE VICTOR 651 42:18 13,26 4:31 54 Séniors
78 DELVAUX GARY 208 42:21 13,24 4:31 55 Séniors
79 BEUKEN DIDIER 81 42:23 13,24 4:31 5 Vétérans 2
80 WINKIN CHRISTOPHE 936 42:29 13,20 4:32 56 Séniors
81 GYSEN GERALD FONZO 792 42:32 13,19 4:32 57 Séniors
82 MANCINI ROBIN 473 42:35 13,17 4:33 11 Vétérans 1
83 MARBAISE DANIEL 476 42:37 13,16 4:33 58 Séniors
84 LAHAYE ADRIEN 840 42:43 13,13 4:34 59 Séniors
85 ROOMANS CHRISTIAN 581 42:44 13,13 4:34 6 Vétérans 2
86 VITELLO CHRISTOPHE 822 42:45 13,12 4:34 60 Séniors
87 KETS SEBASTIEN 779 42:46 13,12 4:34 61 Séniors
88 WERTZ FLORENT 685 42:47 13,11 4:34 6 Espoirs Garçons
89 CABAY JEAN-MARC 796 42:50 13,10 4:34 12 Vétérans 1
90 AGUS PAOLO 41 42:53 13,08 4:35 13 Vétérans 1
91 LAOUREUX LAURENT 419 42:54 13,07 4:35 14 Vétérans 1
92 TELLER BENJAMIN 907 42:56 13,07 4:35 62 Séniors
93 JASPAR CHRISTIAN 383 42:59 13,05 4:35 2 Vétérans 3
94 HEROUFOSSE DAVID 355 43:05 13,02 4:36 63 Séniors
95 EL-BALDI SAID 258 43:10 12,99 4:37 15 Vétérans 1
96 RAHIER JULIEN 805 43:12 12,98 4:37 64 Séniors
97 ELOYE JONATHAN 261 43:15 12,97 4:37 65 Séniors
98 WEICKMANS DAVID 684 43:18 12,96 4:37 66 Séniors
99 SCALCO FABIAN 593 43:19 12,95 4:38 67 Séniors
100 DOURCY ALAIN 908 43:21 12,94 4:38 68 Séniors
101 EVRARD FRANCOISE 13 43:22 12,94 4:38 2 Dames
102 DEKROCK PHILIPPE 848 43:28 12,90 4:38 69 Séniors
103 BROUWIER PIERRE 121 43:30 12,90 4:39 3 Vétérans 3
104 MICHEL JEAN MARC 834 43:31 12,89 4:39 7 Vétérans 2
105 NAGEL NORBERT 757 43:33 12,88 4:39 16 Vétérans 1
106 DE GRAAF ARNOLD 823 43:43 12,83 4:40 8 Vétérans 2
107 JACQUEMOTTE LUDOVIC 375 43:44 12,82 4:40 70 Séniors
108 DEGUELDRE VINCENT 186 43:46 12,82 4:40 71 Séniors
109 DELOYER LAURENT 201 43:47 12,81 4:41 72 Séniors
110 KEYDENER ARNAUD 403 43:48 12,80 4:41 73 Séniors
111 CACCIATORE ALESSANDRO 883 43:50 12,80 4:41 17 Vétérans 1
112 FRANCK MARIE 814 43:56 12,77 4:41 3 Dames
113 VAN TOMME YVES 755 43:57 12,76 4:42 9 Vétérans 2
114 LOESENBORGH FRANCOIS 819 43:59 12,75 4:42 18 Vétérans 1
115 DELINCE GEOFFREY 793 44:00 12,75 4:42 74 Séniors
116 ALBERT SIMON 46 44:01 12,74 4:42 7 Espoirs Garçons
117 LECLERC ROBIN 817 44:02 12,74 4:42 19 Vétérans 1
118 OURY PATRICE 530 44:04 12,73 4:42 20 Vétérans 1
119 ALBERT JEREMY 45 44:11 12,70 4:43 75 Séniors
120 DEGIVE VINCENT 15 44:12 12,69 4:43 10 Vétérans 2
121 JOWAY ERIC 393 44:16 12,67 4:44 11 Vétérans 2
122 DE WIT JEAN-YVES 764 44:20 12,65 4:44 76 Séniors
123 THONART MARC 770 44:24 12,63 4:44 21 Vétérans 1
124 DEFRERE OLIVIER 830 44:26 12,62 4:45 22 Vétérans 1
125 GATEZ SEBASTIEN 306 44:28 12,62 4:45 23 Vétérans 1
126 DE RIDDER OLIVIER 174 44:31 12,60 4:45 77 Séniors
127 EVRARD JOHAN 270 44:38 12,57 4:46 78 Séniors
128 JUDONG PHILIPPE 394 44:40 12,56 4:46 24 Vétérans 1
129 HEUSSCHEN DOMINIQUE 359 44:43 12,54 4:47 12 Vétérans 2
130 RANS CEDRIC 560 44:48 12,52 4:47 25 Vétérans 1
131 KERF PATRICK 400 44:51 12,51 4:47 26 Vétérans 1
132 NOEL JULIEN 838 44:53 12,50 4:48 79 Séniors
133 NYSSEN PIERRE 723 44:54 12,49 4:48 27 Vétérans 1
134 PESSER ALINE 11 44:57 12,48 4:48 3 Ainées 1
135 NAWYN BENJAMIN 5 44:59 12,47 4:48 28 Vétérans 1
136 COLLARD SERGE 145 45:00 12,47 4:48 29 Vétérans 1
137 VANBRABANT RAPHAEL 653 45:01 12,46 4:48 80 Séniors
138 CRASSON VINCENT 763 45:03 12,45 4:49 13 Vétérans 2
139 LUCASSEN PHILIPPE 827 45:05 12,44 4:49 30 Vétérans 1
140 DEBIOLLE FREDERIC 782 45:07 12,43 4:49 81 Séniors
141 LUX RALPH 773 45:08 12,43 4:49 31 Vétérans 1
142 HARDY GREGORY 893 45:10 12,42 4:49 82 Séniors
143 VOSS JEAN-LOUIS 673 45:15 12,39 4:50 4 Vétérans 3
144 DEWANDRE PHILIPPE 1005 45:17 12,39 4:50 32 Vétérans 1
145 AGUS GIOVANNI 42 45:20 12,37 4:50 33 Vétérans 1
146 MARLIER DAVID 481 45:24 12,36 4:51 14 Vétérans 2
147 MALHERBE ANDRE 754 45:26 12,34 4:51 15 Vétérans 2
148 VAN BRACHEL JEAN-MARC 806 45:30 12,33 4:52 16 Vétérans 2
149 DEFLANDRE JEAN MARIE 183 45:36 12,30 4:52 17 Vétérans 2
150 CORTLEVEN WILLY 756 45:40 12,28 4:53 5 Vétérans 3
151 OUADNOUNI SOFIAN 711 45:43 12,27 4:53 8 Espoirs Garçons
152 ACEDO SANCHO CARLOS 38 45:44 12,26 4:53 34 Vétérans 1
153 DELNEUVILLE PHILIPPE 199 45:46 12,26 4:53 35 Vétérans 1
154 BLANDIAUX OLIVIER 87 45:52 12,23 4:54 36 Vétérans 1
155 CARABIN MARTINE 131 45:54 12,22 4:54 1 Ainées 2
156 LEGRAIN CECILE 917 45:56 12,21 4:54 4 Dames
157 JACOB LAURENT 828 45:57 12,21 4:54 83 Séniors
158 DUMOULIN PHILIPPE 249 45:59 12,20 4:55 37 Vétérans 1
159 CANALES ALBERTO 130 46:00 12,19 4:55 18 Vétérans 2
160 STAINIER ERIC 701 46:09 12,15 4:56 19 Vétérans 2
161 DEKEMPENER THIBAUD 188 46:10 12,15 4:56 84 Séniors
162 GOBLET LUC 320 46:23 12,09 4:57 38 Vétérans 1
163 DROOGHAAG DANIEL 942 46:24 12,09 4:57 85 Séniors
164 WEYNAND HELMUT 689 46:25 12,08 4:57 1 Vétérans 4
165 JACQUES ETIENNE 376 46:26 12,08 4:58 86 Séniors
166 INCONNU INCONNU 0 46:27 12,07 0
167 GASPAR AYMERIC 790 46:29 12,07 4:58 9 Espoirs Garçons
168 HABAY BENOIT 928 46:31 12,06 4:58 87 Séniors
169 CHARLIER ALEXANDRE 137 46:33 12,05 4:58 88 Séniors
170 MAUHIN BENOIT 714 46:35 12,04 4:59 89 Séniors
171 REYNAERTS STEVE 572 46:37 12,03 4:59 90 Séniors
172 DEVILLE MICHEL 234 46:38 12,03 4:59 20 Vétérans 2
173 DUMOULIN JEAN LUC 248 46:40 12,02 4:59 39 Vétérans 1
174 BEROGE JEROME 77 46:41 12,01 4:59 40 Vétérans 1
175 ANDRE RENE 47 46:43 12,01 4:59 21 Vétérans 2
176 DENOOZ CORINNE 895 46:45 12,00 5:00 2 Ainées 2
177 SANGIOVANNI JEAN-CHARLES 592 46:47 11,99 5:00 41 Vétérans 1
178 MATHOUL CHRISTOPHE 487 46:50 11,98 5:00 91 Séniors
179 GEROMBOUX PIERRE 313 46:51 11,97 5:00 92 Séniors
180 DEWANDRE THOMAS 881 46:53 11,96 5:00 10 Espoirs Garçons
181 HEUSSCHEN CHRISTINE 360 46:53 11,96 5:00 3 Ainées 2
182 JOSSE NOEL 391 46:54 11,96 5:01 22 Vétérans 2
183 JEMINE GREGORY 855 46:55 11,95 5:01 93 Séniors
184 WILMOTTE FREDERIC 765 46:56 11,95 5:01 94 Séniors
185 ROBINET DANY 577 46:58 11,94 5:01 95 Séniors
186 DUYCKAERTS ROMAIN 800 47:00 11,93 5:01 11 Espoirs Garçons
187 BOULTON CEDRIC 705 47:03 11,92 5:02 96 Séniors
188 DELIEGE MALORY 198 47:05 11,91 5:02 5 Dames
189 MULIER ERIC 10 47:06 11,91 5:02 42 Vétérans 1
190 LEGROS FRANCIS 431 47:08 11,90 5:02 43 Vétérans 1
191 DEJOSE THIERRY 9 47:09 11,90 5:02 44 Vétérans 1
192 VERVIER SERGE 894 47:10 11,89 5:02 45 Vétérans 1
193 DECERF DAVID 25 47:12 11,88 5:02 46 Vétérans 1
194 BECKERS JACQUCS 889 47:14 11,88 5:03 23 Vétérans 2
195 FONTAINE SERGE 291 47:15 11,87 5:03 47 Vétérans 1
196 JONLET LIONEL 388 47:18 11,86 5:03 97 Séniors
197 VALEMBOIS QUENTIN 863 47:19 11,86 5:03 98 Séniors
198 WANSART NICOLAS 1028 47:24 11,83 5:04 99 Séniors
199 JAMAR JULIEN 380 47:26 11,82 5:04 100 Séniors
200 MONAMI SERGE 842 47:28 11,82 5:04 48 Vétérans 1
201 JUNGBLUTH RAYMOND 396 47:30 11,81 5:04 6 Vétérans 3
202 CHEFNEUX SEBASTIEN 140 47:31 11,80 5:04 101 Séniors
203 GOMZE MICHEL 272 47:35 11,79 5:05 49 Vétérans 1
204 ANDRIEN TONY 51 47:36 11,78 5:05 24 Vétérans 2
205 BONFOND PATRICK 97 47:37 11,78 5:05 50 Vétérans 1
206 FRANSSEN CHRISTOPHE 297 47:39 11,77 5:05 51 Vétérans 1
207 SOLHI KHALID 612 47:40 11,77 5:05 52 Vétérans 1
208 POTIER THOMAS 897 47:41 11,76 5:06 102 Séniors
209 VAN AS NATHALIE 647 47:42 11,76 5:06 4 Ainées 1
210 MEYS CLAUDE 813 47:43 11,76 5:06 53 Vétérans 1
211 ULRICI OLIVIER 1006 47:44 11,75 5:06 103 Séniors
212 BREDA GILLES 841 47:49 11,73 5:06 104 Séniors
213 MACHIELS JULIEN 890 47:52 11,72 5:07 12 Espoirs Garçons
214 CUPERS PHILIPPE 159 47:53 11,71 5:07 54 Vétérans 1
215 OLIVIER JEAN-CHRISTOPHE 835 47:55 11,71 5:07 105 Séniors
216 RENIER PHILIPPE 566 47:56 11,70 5:07 55 Vétérans 1
217 SCHNAKERS ARNAUD 595 47:58 11,70 5:07 106 Séniors
218 PIERRE BENOIT 1007 47:59 11,69 5:07 107 Séniors
219 LABAYE DOROTHÉE 858 48:02 11,68 5:08 6 Dames
220 GRUSELIN STEVE 329 48:07 11,66 5:08 108 Séniors
221 MARTIN GILLES 825 48:09 11,65 5:09 109 Séniors
222 HEINRICHS GREGORY 346 48:13 11,63 5:09 110 Séniors
223 ERNST ANDRE 265 48:32 11,56 5:11 25 Vétérans 2
224 SCHEPKENS VINCENT 769 48:41 11,52 5:12 56 Vétérans 1
225 LAMBERT CHRISTOPHE 413 48:49 11,49 5:13 111 Séniors
226 VOSS MURIEL 672 48:50 11,49 5:13 5 Ainées 1
227 DEGEE SIMON 184 48:51 11,48 5:13 112 Séniors
228 ROSA LAURENT 583 48:53 11,48 5:13 57 Vétérans 1
229 SERVAIS LIONEL 872 48:54 11,47 5:13 113 Séniors
230 LEGROS AXEL 788 48:56 11,46 5:14 13 Espoirs Garçons
231 RYCKEBUSCH CYRILLE 948 48:59 11,45 5:14 7 Vétérans 3
232 MATHOUL SEBASTIEN 488 49:01 11,44 5:14 114 Séniors
233 LESECQUE STEPHANE 829 49:03 11,44 5:14 58 Vétérans 1
234 BREDA MAXIME 839 49:04 11,43 5:14 115 Séniors
235 JASPAR JULIEN 382 49:06 11,42 5:15 116 Séniors
236 BYLEVELD AURORE 126 49:07 11,42 5:15 7 Dames
237 WATERVAL MARIE-JEANNE 768 49:09 11,41 5:15 4 Ainées 2
238 DONY OLIVIER 784 49:10 11,41 5:15 117 Séniors
239 JOYEUX YVES 818 49:15 11,39 5:16 59 Vétérans 1
240 BALUS JOSE 58 49:22 11,36 5:16 8 Vétérans 3
241 COLSON LESLIE 913 49:25 11,35 5:17 60 Vétérans 1
242 FORTUNA GINO 910 49:29 11,34 5:17 118 Séniors
243 DAHM DANIEL 165 49:35 11,31 5:18 26 Vétérans 2
244 LEGROS LIONEL 435 49:42 11,29 5:18 119 Séniors
245 HAINEUX XAVIER 953 49:44 11,28 5:19 120 Séniors
246 LECHANTEUR ADRIEN 832 49:45 11,27 5:19 121 Séniors
247 ERNST BERNARD 264 49:47 11,27 5:19 61 Vétérans 1
248 WERA JEAN-MARC 875 49:48 11,26 5:19 62 Vétérans 1
249 VIO EDDY 926 49:49 11,26 5:19 63 Vétérans 1
250 ROUX DAMIEN 766 49:50 11,26 5:19 122 Séniors
251 PIRARD PIERRE 896 49:51 11,25 5:19 27 Vétérans 2
252 POUMAY FRANCIS 791 49:52 11,25 5:20 28 Vétérans 2
253 JONLET YVES 886 49:53 11,24 5:20 29 Vétérans 2
254 CHEBIL RAMI 139 50:01 11,22 5:20 123 Séniors
255 DEMOL CINDY 211 50:02 11,21 5:21 6 Ainées 1
256 PIROTTON DIDIER 903 50:04 11,20 5:21 64 Vétérans 1
257 HALLEUX ERIC 336 50:05 11,20 5:21 124 Séniors
258 DELHEZ THIERRY 795 50:10 11,18 5:21 65 Vétérans 1
259 SOMJA JEAN-PHILIPPE 613 50:15 11,16 5:22 125 Séniors
260 MOSSOUX PHILIPPE 508 50:17 11,15 5:22 30 Vétérans 2
261 LEGROS DAVID 797 50:21 11,14 5:23 66 Vétérans 1
262 BLODEN BENJAMIN 90 50:23 11,13 5:23 126 Séniors
263 FONTAINE BENOIT 864 50:24 11,13 5:23 127 Séniors
264 GOORISSEN YOANN 865 50:25 11,12 5:23 128 Séniors
265 GUILLAUME DAMIEN 6 50:26 11,12 5:23 129 Séniors
266 THEUNENS LIONEL 923 50:29 11,11 5:23 130 Séniors
267 DAUBY PHILIPPE 1029 50:32 11,10 5:24 9 Vétérans 3
268 CLERFAYS HUBERT 142 50:34 11,09 5:24 31 Vétérans 2
269 CHARBON BENOIT 899 50:35 11,09 5:24 67 Vétérans 1
270 LEGRAIN BENOIT 916 50:39 11,07 5:25 131 Séniors
271 PAULY EDDY 809 50:41 11,07 5:25 68 Vétérans 1
272 BREUER JULIE 115 50:43 11,06 5:25 8 Dames
273 NYSSEN THOMAS 526 50:45 11,05 5:25 132 Séniors
274 CORMAN CHRISTIAN 919 50:46 11,05 5:25 133 Séniors
275 COUNET THIERRY 920 50:47 11,04 5:25 134 Séniors
276 NYSSEN MONIQUE 772 50:48 11,04 5:26 5 Ainées 2
277 BELLEFLAMME SERGE 803 50:50 11,03 5:26 32 Vétérans 2
278 MAURO CALOGERO 833 50:51 11,03 5:26 2 Vétérans 4
279 GOOR SYLVIANE 787 50:53 11,02 5:26 7 Ainées 1
280 MASSIN OLIVIER 774 50:54 11,02 5:26 69 Vétérans 1
281 HURLET BERNARD 368 51:12 10,96 5:28 10 Vétérans 3
282 DROUGUET JOSY 845 51:14 10,95 5:28 135 Séniors
283 HUTSCHEMACKERS GUY 1027 51:17 10,94 5:29 11 Vétérans 3
284 KEYDENER CHRISTIAN 816 51:19 10,93 5:29 70 Vétérans 1
285 CARLIER BENOIT 133 51:21 10,92 5:29 71 Vétérans 1
286 DETERME MIREILLE 775 51:24 10,91 5:29 8 Ainées 1
287 TIMMERS LAURENT 740 51:29 10,89 5:30 136 Séniors
288 POUMAY GUILLAUME 789 51:32 10,88 5:30 14 Espoirs Garçons
289 INCONNU INCONNU 892 51:38 10,86 0
290 JEROME ERIC 821 51:44 10,84 5:32 72 Vétérans 1
291 SONNET PHILIPPE 843 51:48 10,83 5:32 137 Séniors
292 KREUTZ JOSE 870 51:51 10,82 5:32 73 Vétérans 1
293 HABAY SEBASTIEN 904 51:53 10,81 5:32 138 Séniors
294 MULLENDERS KEVIN 938 51:55 10,80 5:33 139 Séniors
295 MARCOTTE DOMINIQUE 478 52:01 10,78 5:33 9 Ainées 1
296 RITROVATO SYLVAIN 575 52:03 10,78 5:34 74 Vétérans 1
297 NOLS LUDOVIC 524 52:11 10,75 5:34 140 Séniors
298 BIÉMAR CHRISTIAN 932 52:17 10,73 5:35 75 Vétérans 1
299 LINCE GUY 452 52:20 10,72 5:35 33 Vétérans 2
300 MASSIN JEAN-PHILIPPE 484 52:24 10,70 5:36 141 Séniors
301 HUGLA TANGUY 880 52:29 10,69 5:36 15 Espoirs Garçons
302 MAWET NATHALIE 491 52:32 10,68 5:37 6 Ainées 2
303 WEBER GERTY 683 52:33 10,67 5:37 1 Ainées 3
304 MARQUET GENEVIEVE 482 52:37 10,66 5:37 10 Ainées 1
305 ROYEN ANNIE 587 52:38 10,66 5:37 9 Dames
306 VARISAWO JONATHAN 922 52:42 10,64 5:38 142 Séniors
307 DORTHU ARNAUD 777 52:50 10,62 5:39 143 Séniors
308 SCHWAIGER CLAIRE 603 52:52 10,61 5:39 11 Ainées 1
309 BONHOMME YANNICK 836 53:01 10,58 5:40 144 Séniors
310 VERVIER PATRICK 887 53:05 10,57 5:40 76 Vétérans 1
311 CHARLIER MANUEL 921 53:08 10,56 5:40 77 Vétérans 1
312 JACOBS VERONIQUE 737 53:10 10,55 5:41 12 Ainées 1
313 HEBERT ALEXANDRE 852 53:13 10,54 5:41 145 Séniors
314 ADAM MURIELLE 39 53:15 10,53 5:41 10 Dames
315 DELSEMME ANDRE 846 53:17 10,53 5:42 78 Vétérans 1
316 ROEMERS MICHEL 578 53:27 10,49 5:43 12 Vétérans 3
317 TERWAGNE PIERRE 826 53:32 10,48 5:43 146 Séniors
318 FETTWEIS THIERRY 281 53:36 10,47 5:43 34 Vétérans 2
319 INCONNU INCONNU 0 53:41 10,45 0
320 VAN DE WIELE CHANTAL 648 53:46 10,43 5:45 7 Ainées 2
321 BASTIN PAUL 61 53:48 10,43 5:45 13 Vétérans 3
322 RYCKEBUSCH MARIE FRANCE 947 53:49 10,42 5:45 2 Ainées 3
323 STABEL PHILIPPE 618 53:51 10,42 5:45 79 Vétérans 1
324 LEJEUNE DAVID 847 53:56 10,40 5:46 80 Vétérans 1
325 LORQUET MARC 460 53:57 10,40 5:46 81 Vétérans 1
326 PIELA RUDY 537 53:59 10,39 5:46 147 Séniors
327 PESSER RENE 536 54:00 10,39 5:46 35 Vétérans 2
328 PHILIPPE AUDREY 850 54:05 10,37 5:47 11 Dames
329 SCHOONBROODT DOMINIQUE 599 54:07 10,37 5:47 8 Ainées 2
330 DENOZ BENJAMIN 220 54:08 10,36 5:47 148 Séniors
331 CALISGAN RELEP 941 54:10 10,35 5:47 149 Séniors
332 VOISIN HELENE 671 54:13 10,35 5:47 13 Ainées 1
333 REPPEN NICOLAS 570 54:14 10,34 5:48 82 Vétérans 1
334 ZIANT CHRISTOPHE 697 54:16 10,34 5:48 150 Séniors
335 MASSON PASCALE 485 54:18 10,33 5:48 9 Ainées 2
336 BAIWIR ANTHONY 57 54:19 10,33 5:48 151 Séniors
337 THIELEN NICOLAS 1026 54:20 10,32 5:48 152 Séniors
338 FOGUENNE MICHELINE 289 54:21 10,32 5:48 14 Ainées 1
339 MARX BENOIT 759 54:22 10,32 5:48 153 Séniors
340 COLLARD JEAN-MICHEL 867 54:26 10,30 5:49 154 Séniors
341 VANDEGAAR TONY 655 54:27 10,30 5:49 14 Vétérans 3
342 VINCENT MANU 815 54:30 10,29 5:49 155 Séniors
343 DUYCKAERTS ERIC 254 54:32 10,28 5:50 83 Vétérans 1
344 ALEXIS PASCAL 874 54:38 10,27 5:50 156 Séniors
345 DALEM MARIANNE 879 54:40 10,26 5:50 15 Ainées 1
346 DETRY PHILIPPE 232 54:51 10,23 5:52 36 Vétérans 2
347 ALLELYN BERNARD 885 54:57 10,21 5:52 84 Vétérans 1
348 LAMBERT HENRI 939 54:58 10,20 5:52 85 Vétérans 1
349 RENAERS STEPHANE 562 55:00 10,20 5:52 86 Vétérans 1
350 WASSON ANDRE 762 55:11 10,17 5:54 87 Vétérans 1
351 TENEY LAURENCE 799 55:15 10,15 5:54 12 Dames
352 BRABANT JEAN JACQUES 820 55:20 10,14 5:55 37 Vétérans 2
353 NOIRFALISE CECILE 523 55:22 10,13 5:55 16 Ainées 1
354 BELLEFLAMME ANNE 804 55:24 10,13 5:55 13 Dames
355 DEMIRKAZAN FERDI 1009 55:25 10,12 5:55 157 Séniors
356 ANCION GENEVIEVE 853 55:35 10,09 5:56 14 Dames
357 LEGROS GHISLAIN 432 55:36 10,09 5:56 88 Vétérans 1
358 GRIFNEE SOPHIE 882 55:43 10,07 5:57 15 Dames
359 MONSEUR ERIC 504 55:44 10,06 5:57 158 Séniors
360 FRANSSEN COLETTE 901 55:49 10,05 5:58 10 Ainées 2
361 ARNOLD MARIE FRANCE 1003 55:59 10,02 5:59 17 Ainées 1
362 DUYSENS JEANNOT 255 56:04 10,00 5:59 38 Vétérans 2
363 BERTRAM PETRA 752 56:06 10,00 6:00 18 Ainées 1
364 HAMERS HARRIE 753 56:08 9,99 6:00 15 Vétérans 3
365 WEBER GILBERTE 682 56:09 9,99 6:00 3 Ainées 3
366 WOLF LEON 873 56:17 9,97 6:01 89 Vétérans 1
367 THONNART JACQUES 635 56:24 9,94 6:02 159 Séniors
368 BAILLY MARIE LAURENCE 56 56:27 9,94 6:02 19 Ainées 1
369 LARMINIER ANNE-MARIE 421 56:28 9,93 6:02 4 Ainées 3
370 SIMONIS NADIA 831 56:28 9,93 6:02 16 Dames
371 BEUSINNE ELIANE 900 56:29 9,93 6:02 5 Ainées 3
372 GEGAY CALIME 783 56:40 9,90 6:03 160 Séniors
373 COUMONT SYLVIANE 771 56:44 9,89 6:04 11 Ainées 2
374 ISERENTANT CAROLINE 937 56:46 9,88 6:04 20 Ainées 1
375 ABAD LAMAS HAYDEE PATRICIA 37 56:49 9,87 6:04 12 Ainées 2
376 SCHREURS BERNARD 600 56:53 9,86 6:05 161 Séniors
377 CORHAY PIERRE 1008 56:55 9,85 6:05 162 Séniors
378 GOHY JULIEN 324 57:04 9,83 6:06 163 Séniors
379 VALENTIN MICHEL 940 57:06 9,82 6:06 39 Vétérans 2
380 DANTHINE YVES 924 57:07 9,82 6:06 40 Vétérans 2
381 DELOYER THOMAS 202 57:12 9,81 6:07 16 Espoirs Garçons
382 MONSEZ CHRISTINE 869 57:16 9,80 6:07 17 Dames
383 HENRY PHILIPPE 1004 57:19 9,79 6:07 90 Vétérans 1
384 PARTHOENS ROLAND 861 57:26 9,77 6:08 91 Vétérans 1
385 NIX MARIA 860 57:27 9,76 6:08 21 Ainées 1
386 PIRLOT BERNARD 541 57:31 9,75 6:09 164 Séniors
387 DUVNYAK RACHEL 786 57:45 9,71 6:10 18 Dames
388 DURIEUX LAURENCE 952 57:46 9,71 6:10 19 Dames
389 LHOEST PATRICK 951 57:47 9,71 6:10 165 Séniors
390 BERTRAM MARIA 751 57:51 9,70 6:11 6 Ainées 3
391 DETHIER NICOLAS 918 57:57 9,68 6:11 166 Séniors
392 DETHIER ERIC 884 58:10 9,64 6:13 41 Vétérans 2
393 MONTE MAGALI 505 58:12 9,64 6:13 20 Dames
394 WERY SEBASTIEN 933 58:31 9,59 6:15 167 Séniors
395 THIELEN THOMAS 629 58:33 9,58 6:15 17 Espoirs Garçons
396 BRAGARD CHANTAL 109 58:35 9,58 6:15 13 Ainées 2
397 THEMLIN SEBASTIEN 1025 58:39 9,56 6:16 168 Séniors
398 EL-BALDI HINDE 260 58:40 9,56 6:16 1 Espoirs Filles
399 DERKENNE CHRISTELLE 898 58:44 9,55 6:16 22 Ainées 1
400 DELWAIDE ANNE 209 58:51 9,53 6:17 14 Ainées 2
401 LEBAS CELINE 909 58:52 9,53 6:17 23 Ainées 1
402 EL BALDI FATIHA 256 58:53 9,53 6:17 24 Ainées 1
403 GAILLIET GUILLAUME 931 58:56 9,52 6:18 169 Séniors
404 HENNEN NANJA 854 58:57 9,51 6:18 21 Dames
405 VINCENT PATRICK 807 59:09 9,48 6:19 170 Séniors
406 WATERVAL PIERRE 767 59:11 9,48 6:19 42 Vétérans 2
407 CORNET CHRISTOPHE 780 59:13 9,47 6:20 171 Séniors
408 SIMONS JENNIFER 857 59:15 9,47 6:20 22 Dames
409 BRASSEUR MURIEL 912 59:17 9,46 6:20 15 Ainées 2
410 THIELEN SYLVIE 925 59:20 9,45 6:20 25 Ainées 1
411 PIROTTE ISABELLE 1023 59:28 9,43 6:21 16 Ainées 2
412 GORISSEN DIDIER 326 59:32 9,42 6:22 172 Séniors
413 DELAIRESSE GILBERT 794 59:49 9,38 6:23 3 Vétérans 4
414 DERICHS PATRICIA 222 59:50 9,37 6:24 17 Ainées 2
415 GREGOIRE MARC 955 59:54 9,37 6:24 92 Vétérans 1
416 BONHOMME JULIE 642 59:55 9,36 6:24 23 Dames
417 BELLEFLAMME ANNE 808 1:00:17 9,30 6:26 24 Dames
418 WILLEMS MAXIME 902 1:00:25 9,28 6:27 173 Séniors
419 THIELEN JOSE 631 1:00:31 9,27 6:28 174 Séniors
420 MOINEAU VICTOR 502 1:00:36 9,26 6:28 16 Vétérans 3
421 VALENTINY AMELIE 844 1:00:39 9,25 6:29 25 Dames
422 VERITER BABETTE 22 1:00:53 9,21 6:30 18 Ainées 2
423 MARISLAL DIAZ VICTORIA 906 1:01:01 9,19 6:31 26 Dames
424 RIGA RENE 574 1:01:10 9,17 6:32 4 Vétérans 4
425 BELLEFLAMME CLAIRE 801 1:01:13 9,16 6:32 27 Dames
426 FRYNS GILBERT 299 1:01:28 9,13 6:34 17 Vétérans 3
427 LEVAUX BENOIT 760 1:01:29 9,12 6:34 93 Vétérans 1
428 LOVENBERG GUY 465 1:01:30 9,12 6:34 43 Vétérans 2
429 HICK ANNE-CATHERINE 866 1:01:32 9,12 6:34 26 Ainées 1
430 EL JERRARI MARIA 849 1:01:43 9,09 6:36 27 Ainées 1
431 PREUMONT MICHEL 555 1:01:44 9,09 6:36 18 Vétérans 3
432 MAQUINAY FELICIEN 475 1:01:55 9,06 6:37 44 Vétérans 2
433 PETIT-JEAN DEBORAH 868 1:01:57 9,06 6:37 28 Dames
434 DARIMONT JOCELYNE 169 1:02:07 9,03 6:38 19 Ainées 2
435 DELHAES CLAIRE 945 1:02:08 9,03 6:38 29 Dames
436 BROUWERS VERONIQUE 802 1:02:20 9,00 6:40 20 Ainées 2
437 XHONNEUX GABRIELLE 785 1:02:29 8,98 6:40 7 Ainées 3
438 LAHAYE VANESSA 411 1:02:40 8,95 6:42 28 Ainées 1
439 GIELEN MURIELLE 837 1:02:42 8,95 6:42 21 Ainées 2
440 WILKIN ANDRE 690 1:02:50 8,93 6:43 19 Vétérans 3
441 BRANDT ARLETTE 112 1:02:53 8,92 6:43 8 Ainées 3
442 CALIFICE HUBERTE 128 1:03:08 8,88 6:45 9 Ainées 3
443 AMAND CATHERINE 915 1:03:15 8,87 6:45 22 Ainées 2
444 POTTIER FABIENNE 552 1:03:17 8,86 6:46 23 Ainées 2
445 HENRY MARIE-FRANCE 914 1:03:22 8,85 6:46 29 Ainées 1
446 COLLINET VALERIE 871 1:03:49 8,79 6:49 30 Ainées 1
447 CHARLIER GEORGETTE 1001 1:03:56 8,77 6:50 24 Ainées 2
448 HAGELSTEIN CHRISTINE 333 1:04:01 8,76 6:50 30 Dames
449 DEPREITERE HILDEGARD 221 1:04:14 8,73 6:52 10 Ainées 3
450 ZOUARI SEIF 736 1:04:47 8,66 6:55 175 Séniors
451 MARECHAL FERNAND 935 1:04:52 8,65 6:56 20 Vétérans 3
452 MAILLEUX YVES 1002 1:04:53 8,64 6:56 21 Vétérans 3
453 BASTIN FLORINE 65 1:04:54 8,64 6:56 31 Dames
454 BASTIN AURELIE 63 1:05:06 8,62 6:57 32 Dames
455 BODIN DELPHINE 950 1:05:16 8,59 6:58 31 Ainées 1
456 D'ANNA SALVATORE 949 1:05:17 8,59 6:59 94 Vétérans 1
457 RENSONNET MAUD 943 1:05:19 8,59 6:59 33 Dames
458 MONSEZ ANNE CECILE 888 1:05:22 8,58 6:59 32 Ainées 1
459 MULLENDERS ADRIEN 934 1:05:23 8,58 6:59 95 Vétérans 1
460 SIMON ISABELLE 607 1:05:24 8,58 6:59 25 Ainées 2
461 MOOR BERNADETTE 944 1:05:25 8,57 6:59 26 Ainées 2
462 GROSJEAN MARTINE 930 1:05:26 8,57 6:59 33 Ainées 1
463 LARONDELLE SYLVIANE 422 1:05:27 8,57 7:00 27 Ainées 2
464 LANGE CHRISTINE 417 1:05:30 8,56 7:00 28 Ainées 2
465 CHARLIER ANNE-CATHERINE 32 1:05:37 8,55 7:01 34 Dames
466 KERRENS EDITH 401 1:05:39 8,54 7:01 29 Ainées 2
467 SACRE EVELYNE 590 1:05:42 8,54 7:01 30 Ainées 2
468 MOLMANS MAURICE 851 1:05:44 8,53 7:01 22 Vétérans 3
469 MERTES JANA 946 1:06:14 8,47 7:05 35 Dames
470 DEFAYS POL 182 1:07:57 8,25 7:16 1 Vétérans 5
471 MARTIN SOLANGE 1030 1:08:06 8,24 7:17 36 Dames
472 GILIS SARAH 1022 1:08:43 8,16 7:20 37 Dames
473 FETTWEIS GAELLE 280 1:12:54 7,69 7:47 38 Dames